Left ArrowRight Arrow

Hourly Observations for September 19, 2021

Temp ( °F °C ) Dew Point ( °F °C ) Humidity (%) Winds ( mph kmh ) Pressure ( in mb ) Visibility ( mi km ) Precip ( " mm )
12:53 am 00:53 Cloudy with Smoke 63 17.2 59 15 87 87 S 9 15 29.94 1014 10 16 0.00 0.00
1:38 am 01:38 Mostly Cloudy with Smoke 63 17.2 59 15 87 87 VRB 6 9 29.96 1015 10 16 0.00 0.00
1:53 am 01:53 Mostly Cloudy with Smoke 64 17.8 59 15 84 84 SW 6 9 29.96 1014 10 16 0.00 0.00
2:12 am 02:12 Mostly Clear with Smoke 63 17.2 59 15 87 87 S 6 9 29.96 1015 10 16 0.00 0.00
2:53 am 02:53 Mostly Cloudy with Smoke 62 16.7 58 14.4 86 86 W 6 9 29.97 1015 10 16 0.00 0.00
3:53 am 03:53 Clear with Smoke 62 16.7 58 14.4 86 86 SSW 8 13 29.97 1015 10 16 0.00 0.00
4:53 am 04:53 Clear with Smoke 60 15.6 57 13.9 90 90 SW 6 9 29.98 1015 10 16 0.00 0.00
5:53 am 05:53 Cloudy with Smoke 58 14.4 56 13.3 93 93 E 6 9 30.00 1016 10 16 0.00 0.00
6:02 am 06:02 Cloudy with Smoke 59 15 57 13.9 93 93 ESE 9 15 30.01 1016 10 16 0.00 0.00
6:33 am 06:33 Mostly Cloudy with Smoke 60 15.6 58 14.4 93 93 S 12 19 30.01 1016 10 16 0.00 0.00
6:53 am 06:53 Cloudy with Smoke 61 16.1 58 14.4 90 90 S 9 15 30.01 1016 10 16 0.00 0.00
7:27 am 07:27 Cloudy with Light Rain 61 16.1 58 14.4 90 90 SW 3 6 30.04 1017 10 16 0.00 0.00
7:53 am 07:53 Cloudy with Smoke 61 16.1 59 15 93 93 SW 3 6 30.05 1018 10 16 0.00 0.00
8:08 am 08:08 Cloudy with Smoke 61 16.1 59 15 93 93 WSW 3 6 30.06 1018 10 16 0.01 0.25
8:23 am 08:23 Mostly Cloudy with Smoke 61 16.1 58 14.4 90 90 WSW 5 7 30.06 1018 10 16 0.01 0.25
8:32 am 08:32 Partly Cloudy with Smoke 61 16.1 59 15 93 93 Calm 30.06 1018 10 16 0.01 0.25
8:44 am 08:44 Mostly Cloudy with Smoke 62 16.7 59 15 90 90 SSW 5 7 30.05 1018 10 16 0.01 0.25
8:53 am 08:53 Mostly Cloudy with Smoke 63 17.2 59 15 87 87 SSW 6 9 30.06 1018 10 16 0.01 0.25
9:01 am 09:01 Cloudy with Smoke 63 17.2 59 15 87 87 SSW 8 13 30.06 1018 10 16 0.00 0.00
9:08 am 09:08 Cloudy with Smoke 63 17.2 59 15 87 87 S 5 7 30.06 1018 10 16 0.00 0.00
9:37 am 09:37 Mostly Cloudy with Smoke 64 17.8 58 14.4 81 81 WSW 5 7 30.07 1018 10 16 0.00 0.00
9:45 am 09:45 Mostly Cloudy with Smoke 65 18.3 58 14.4 78 78 Calm 30.08 1019 10 16 0.00 0.00
9:53 am 09:53 Cloudy with Smoke 65 18.3 59 15 81 81 Calm 30.08 1019 10 16 0.00 0.00
10:04 am 10:04 Cloudy with Smoke 66 18.9 58 14.4 75 75 WSW 5 7 30.08 1019 10 16 0.00 0.00
10:13 am 10:13 Mostly Cloudy with Smoke 66 18.9 57 13.9 73 73 VRB 5 7 30.08 1019 10 16 0.00 0.00
10:53 am 10:53 Partly Cloudy with Smoke 68 20 56 13.3 65 65 Calm 30.09 1019 10 16 0.00 0.00
11:53 am 11:53 Partly Cloudy with Smoke 71 21.7 53 11.7 53 53 Calm 30.08 1019 10 16 0.00 0.00
12:53 pm 12:53 Sunny with Smoke 73 22.8 49 9.4 43 43 ENE 6 9 30.08 1019 10 16 0.00 0.00
1:53 pm 13:53 Partly Cloudy with Smoke 74 23.3 49 9.4 41 41 SE 3 6 30.07 1018 10 16 0.00 0.00
2:53 pm 14:53 Sunny with Smoke 75 23.9 46 7.8 36 36 Calm 30.05 1018 10 16 0.00 0.00
3:53 pm 15:53 Sunny with Smoke 78 25.6 43 6.1 29 29 VRB 5 7 30.04 1017 10 16 0.00 0.00
4:53 pm 16:53 Sunny with Smoke 79 26.1 42 5.6 27 27 N 9 15 30.02 1017 10 16 0.00 0.00
5:53 pm 17:53 Sunny with Smoke 79 26.1 42 5.6 27 27 NNW 6 9 30.02 1017 10 16 0.00 0.00
6:53 pm 18:53 Sunny with Smoke 76 24.4 43 6.1 31 31 NW 5 7 30.02 1017 10 16 0.00 0.00
7:53 pm 19:53 Clear with Smoke 72 22.2 44 6.7 37 37 NW 5 7 30.04 1017 10 16 0.00 0.00
8:53 pm 20:53 Clear with Smoke 71 21.7 46 7.8 41 41 N 7 11 30.06 1018 10 16 0.00 0.00
9:53 pm 21:53 Clear with Smoke 69 20.6 45 7.2 42 42 N 9 15 30.08 1019 10 16 0.00 0.00
10:53 pm 22:53 Clear with Smoke 68 20 42 5.6 39 39 N 9 15 30.09 1019 10 16 0.00 0.00
11:53 pm 23:53 Clear with Smoke 67 19.4 41 5 39 39 NNE 13 20 30.09 1019 10 16 0.00 0.00

Powered by Vaisala Xweather